User: anonymous   Login
Location: Alexandria
(38.8050°N, 77.0470°W)
Time: 09:29:38
(UTC-04:00)
Language:

Envisat - Orbit

View from above orbital plane
View from above orbital plane
View from above satellite
View from above satellite

Ground track
Ground track

The orbit data is extracted from the following two-line orbital elements,

1 27386U 02009A   18140.11554807 -.00000020  00000-0  68546-5 0  9999
2 27386  98.1868 175.4957 0001296  88.6487 288.8985 14.37922160849492
Epoch (UTC): 20 May 2018 02:46:23
Eccentricity: 0.0001296
inclination: 98.1868°
perigee height: 764 km
apogee height: 766 km
right ascension of ascending node: 175.4957°
argument of perigee: 88.6487°
revolutions per day: 14.37922160
mean anomaly at epoch: 288.8985°
orbit number at epoch: 84949

The dashed part of the orbit path shows where the satellite is in the earth's shadow,  

DLR